TimeEDT,TemperatureF,Dew PointF,Humidity,Sea Level PressureIn,VisibilityMPH,Wind Direction,Wind SpeedMPH,Gust SpeedMPH,PrecipitationIn,Events,Conditions,WindDirDegrees,DateUTC
12:53 AM,42.1,36.0,79,30.27,10.0,Calm,Calm,-,N/A,,Clear,0,2013-03-28 04:53:00
1:53 AM,42.1,36.0,79,30.27,10.0,Calm,Calm,-,N/A,,Clear,0,2013-03-28 05:53:00
2:53 AM,41.0,35.1,79,30.27,10.0,Calm,Calm,-,N/A,,Clear,0,2013-03-28 06:53:00
3:53 AM,39.9,34.0,79,30.26,10.0,Calm,Calm,-,N/A,,Clear,0,2013-03-28 07:53:00
4:53 AM,39.9,33.1,77,30.25,10.0,Calm,Calm,-,N/A,,Clear,0,2013-03-28 08:53:00
5:53 AM,39.9,33.1,77,30.25,10.0,Calm,Calm,-,N/A,,Clear,0,2013-03-28 09:53:00
6:53 AM,42.1,33.1,70,30.27,10.0,Calm,Calm,-,N/A,,Clear,0,2013-03-28 10:53:00
7:53 AM,42.1,34.0,73,30.28,10.0,NNW,4.6,-,N/A,,Clear,330,2013-03-28 11:53:00
8:53 AM,48.9,35.1,59,30.30,10.0,NNW,5.8,-,N/A,,Clear,340,2013-03-28 12:53:00
9:53 AM,54.0,30.0,40,30.31,10.0,NNW,8.1,-,N/A,,Clear,340,2013-03-28 13:53:00
10:53 AM,57.9,27.0,31,30.32,10.0,NNW,10.4,-,N/A,,Clear,330,2013-03-28 14:53:00
11:53 AM,60.1,28.0,30,30.31,10.0,WNW,11.5,-,N/A,,Clear,300,2013-03-28 15:53:00
12:53 PM,63.0,27.0,26,30.31,10.0,NW,10.4,19.6,N/A,,Clear,310,2013-03-28 16:53:00
1:53 PM,64.0,27.0,25,30.29,10.0,WNW,9.2,18.4,N/A,,Clear,300,2013-03-28 17:53:00
2:53 PM,64.9,30.0,27,30.27,10.0,NNE,6.9,-,N/A,,Clear,30,2013-03-28 18:53:00
3:53 PM,61.0,39.9,46,30.24,10.0,ENE,10.4,-,N/A,,Clear,70,2013-03-28 19:53:00
4:53 PM,62.1,39.9,44,30.23,10.0,ENE,8.1,-,N/A,,Clear,70,2013-03-28 20:53:00
5:53 PM,61.0,39.0,44,30.23,10.0,ENE,5.8,-,N/A,,Clear,60,2013-03-28 21:53:00
6:53 PM,59.0,39.0,48,30.25,10.0,ESE,6.9,-,N/A,,Clear,120,2013-03-28 22:53:00
7:53 PM,55.0,42.1,62,30.26,10.0,Calm,Calm,-,N/A,,Clear,0,2013-03-28 23:53:00
8:53 PM,51.1,43.0,74,30.27,10.0,Calm,Calm,-,N/A,,Clear,0,2013-03-29 00:53:00
9:53 PM,48.9,43.0,80,30.29,10.0,Calm,Calm,-,N/A,,Clear,0,2013-03-29 01:53:00
10:53 PM,48.0,42.1,80,30.30,10.0,Calm,Calm,-,N/A,,Clear,0,2013-03-29 02:53:00
11:53 PM,46.9,41.0,80,30.31,10.0,Calm,Calm,-,N/A,,Clear,0,2013-03-29 03:53:00